Regional Weather Roundup
Issued by NWS

Home | Current Version | Previous Version | Text Only | Print | Product List | Glossary On
Versions: 1 2 3 4 5 6 7 8 9 10 11 12 13 14 15 16 17 18 19 20 21 22 23 24 25 26 27 28 29 30 31 32 33 34 35 36 37 38 39 40 41 42 43 44 45 46 47 48 49 50
000
ASUS43 KLOT 032210
RWRIL

ILLINOIS REGIONAL WEATHER ROUNDUP
NATIONAL WEATHER SERVICE CHICAGO/ROMEOVILLE IL
400 PM CST TUE MAR 03 2015

NOTE: "FAIR" INDICATES FEW OR NO CLOUDS BELOW 12,000 FEET WITH NO
SIGNIFICANT WEATHER AND/OR OBSTRUCTIONS TO VISIBILITY.

* THESE STATIONS ARE NOT UNDER NWS QUALITY CONTROL. THEY ALSO MAY NOT
  REPORT WEATHER SUCH AS PRECIPITATION OR FOG.

ILZ001-002-007-009-015-016-024-032300-
NORTHWEST ILLINOIS

CITY           SKY/WX    TMP DP  RH WIND       PRES   REMARKS
MOLINE         CLOUDY    35  29  78 W17G24    29.75R WCI  25
STERLING*      CLOUDY    34  30  86 W16       29.73R WCI  23
SAVANNA*       CLOUDY    34  28  79 W14G21    29.72R WCI  25
$$

ILZ003-004-008-010-011-017-018-032300-
NORTH CENTRAL ILLINOIS

CITY           SKY/WX    TMP DP  RH WIND       PRES   REMARKS
ROCKFORD       CLOUDY    33  28  81 W14       29.70R WCI  23
FREEPORT*      CLOUDY    32  28  85 W15       29.71R WCI  22
ROCHELLE*      CLOUDY    33  31  92 W7        29.69R WCI  26
DE KALB*       CLOUDY    32  29  90 W17G24    29.68R WCI  21
PERU*          CLOUDY    36  32  86 W14G20    29.74R WCI  27
$$

ILZ005-006-012>014-019>023-032300-
NORTHEAST ILLINOIS

CITY           SKY/WX    TMP DP  RH WIND       PRES   REMARKS
CHICAGO-OHARE  CLOUDY    34  29  82 W15G23    29.66R WCI  24
CHICAGO-MIDWAY CLOUDY    37  31  78 W15G25    29.69R WCI  28
AURORA         CLOUDY    34  30  85 W17       29.69R WCI  23
LANSING*       CLOUDY    35  32  88 W14G24    29.69R WCI  26
JOLIET*        CLOUDY    35  32  88 W10G17    29.71R WCI  27
WAUKEGAN       CLOUDY    33  29  85 W8G20     29.63R WCI  26
DUPAGE AIRPORT CLOUDY    34  30  85 W13       29.66R WCI  25
KANKAKEE*      CLOUDY    35  33  92 W15       29.72S WCI  25
WHEELING       CLOUDY    34  29  82 W10       29.67S WCI  26
MORRIS*        CLOUDY    35  33  91 W17G23    29.72R WCI  25
ROMEOVILLE*    CLOUDY    34  32  91 W16G23    29.69R WCI  24
NORTHERLY ISL    N/A     35  30  82 NW12        N/A  WCI  27
$$

LMZ740>746-032300-
SOUTHERN LAKE MICHIGAN

STATION/POSITION SKY/WX   TEMP    WIND        PRES    VSBY  WAVE
                          AIR SEA DIR/SP/G                  HT/PER
                          (F)     (DEG/KT/KT) (MB)    (MI)  (FT/S)
WAUKEGAN HARBOR            34                   N/A
HARRISON CRIB              35     270/ 21/ 27   N/A
BURNHAM HARBOR             35     280/  7/ 15   N/A
CALUMET HARBOR             36     250/  8/ 13 1003.8F
MICHIGAN CITY              34     230/ 17/ 20   N/A
$$

ILZ025>027-034>036-040-047-049-050-058-095>099-032300-
WEST-CENTRAL ILLINOIS

CITY           SKY/WX    TMP DP  RH WIND       PRES   REMARKS
QUINCY         CLOUDY    38  36  92 W13       29.81R FOG     WCI  30
GALESBURG*     CLOUDY    35  32  90 W14       29.77R WCI  25
MACOMB*        CLOUDY    35  34  96 NW15      29.83R WCI  25
JACKSONVILLE*  CLOUDY    41  38  90 SW8       29.80R FOG
PITTSFIELD*    CLOUDY    40  38  93 W5        29.81R FOG
$$

ILZ028>032-037-038-041>044-048-051>054-059>061-032300-
CENTRAL ILLINOIS

CITY           SKY/WX    TMP DP  RH WIND       PRES   REMARKS
PONTIAC        CLOUDY    36  35  94 W15       29.76R WCI  27
BLOOMINGTON    CLOUDY    37  36  96 W15G23    29.77R FOG     WCI  28
DECATUR        CLOUDY    39  37  92 W10       29.78R FOG     WCI  32
PEORIA         CLOUDY    38  33  82 W12       29.77R WCI  30
LACON*         CLOUDY    36  32  87 W10G16    29.76R WCI  28
LINCOLN*       CLOUDY    39  37  91 W6        29.79R FOG     WCI  35
SPRINGFIELD    CLOUDY    37  35  92 W12       29.80R FOG     WCI  29
TAYLORVILLE    CLOUDY    37  36  93 W12       29.80S FOG     WCI  30
$$

ILZ033-039-045-046-055>057-062-063-032300-
EAST-CENTRAL ILLINOIS

CITY           SKY/WX    TMP DP  RH WIND       PRES   REMARKS
CHAMPAIGN      CLOUDY    36  34  92 W15       29.77R FOG     WCI  27
DANVILLE*      CLOUDY    37  36  94 W16       29.74R FOG     WCI  28
RANTOUL*       CLOUDY    38  37  93 W14       29.76R FOG     WCI  30
MATTOON        CLOUDY    39  39 100 W10G32    29.79R WCI  32
PARIS*         CLOUDY    39  38  99 W14       29.81R WCI  30
$$

ILZ079-100>102-032300-
SOUTHWEST ILLINOIS

CITY           SKY/WX    TMP DP  RH WIND       PRES   REMARKS
ALTON          CLOUDY    39  39 100 NW7       29.83  FOG     WCI  34
BELLEVILLE     FOG       41  41 100 CALM      29.82R VSB 3/4
CAHOKIA*       CLOUDY    46  45  96 W5        29.83R
SPARTA*        CLOUDY    43  42  95 S3        29.83R FOG
$$

ILZ064>066-069>071-074>076-080>082-084>086-088>090-092>094-032300-
SOUTH-CENTRAL ILLINOIS

CITY           SKY/WX    TMP DP  RH WIND       PRES   REMARKS
CARBONDALE     CLOUDY    44  42  93 S8        29.85R
CAIRO*         RAIN     N/A N/A N/A SW8       29.87S VSB 1/2
EFFINGHAM*     LGT RAIN  40  38  91 SW6       29.82S VSB 1
MARION         CLOUDY    45  43  93 SW12      29.85R
MT. VERNON     CLOUDY    43  37  81 SW10      29.82F VSB 1
CENTRALIA*     FOG       40  38  93 SW7       29.80F VSB 1
SALEM*         MIX PCPN  42  40  93 SW7       29.80F VSB 1/2
METROPOLIS*    RAIN      52  52 100 SW9       29.85S
$$

ILZ067-068-072-073-078-083-087-091-032300-
SOUTHEAST ILLINOIS

CITY           SKY/WX    TMP DP  RH WIND       PRES   REMARKS
LAWRENCEVILLE  FOG       41  40  96 SW10      29.81S VSB<1/4
FLORA*         FOG       41  40  99 SW5       29.82R VSB 1/4
FAIRFIELD*     CLOUDY    44  44  98 SW8       29.80F FOG
HARRISBURG*    LGT RAIN  46  46 100 W6        29.86R
ROBINSON*      DRIZZLE   40  40  99 SW13      29.81R
CARMI*         DRIZZLE   48  47  99 SW10      29.83F
$$

ABBREVIATIONS USED IN REMARKS
   TC - TEMPERATURE IN CELSIUS
  WCI - WIND CHILL INDEX
   HX - HEAT INDEX
  VSB - VISIBILITY
$$



USA.gov is the U.S. government's official web portal to all federal, state and local government web resources and services.